[[{"header":{"parameterUnit":"m.s-1","parameterCategory":1,"la1":30.2991,"la2":30.254,"lo1":-89.0895,"lo2":-89.0444,"dy":0.0017,"dx":0.0017,"nx":28,"ny":28,"refTime":"2026-03-04T09:00:00:Z","depth":0,"parameterNumber":2,"parameterNumberName":"U-component_of_WINDS"},"data":[0,0,0,0,0,0,0,0,0,0,0,0,0,0,0,0,0,0,0,0,0,0,0,0,0,0,0,0,0,0,0,0,0,0,0,0,0,0,0,0,0,0,0,0,0,0,0,0,0,0,0,0,0,0,0,0,0,0,-3.9423,-3.9425,0,-3.953,-3.9531,-3.9532,-3.9509,-3.9507,-3.9505,-3.9503,-3.9613,-3.9618,-3.9622,0,0,0,0,0,0,0,0,0,0,0,0,0,-3.9204,-3.9208,-3.9423,-3.9425,-3.9426,-3.9529,-3.9531,-3.9532,-3.951,-3.9507,-3.9505,-3.9502,-3.9612,-3.9617,-3.9623,0,0,0,0,0,0,0,0,0,0,0,0,0,-3.9304,-3.9209,-3.9423,-3.9427,-3.9428,-3.9529,-3.9531,-3.9533,-3.951,-3.9507,-3.9504,-3.9501,-3.961,-3.9617,-3.9624,-3.9727,0,0,-3.9645,-3.9649,0,0,0,0,0,0,0,0,-3.9298,-3.9312,-3.9425,-3.9427,-3.9429,-3.9503,-3.9494,-3.9598,-3.9511,-3.9479,-3.9503,-3.95,-3.9579,-3.9588,-3.9615,-3.9732,-3.9737,-3.9646,-3.965,-3.9654,-3.9656,0,0,0,0,0,0,0,-3.9291,-3.9307,-3.9465,-3.9427,-3.9429,-3.9425,-3.9435,-3.9513,-3.9544,-3.9482,-3.948,-3.9493,-3.9579,-3.9608,-3.9617,-3.9739,-3.9646,-3.9652,-3.9657,-3.9659,-3.9949,-3.9953,0,0,0,0,0,0,-3.9282,-3.9301,-3.9462,-3.9469,-3.9355,-3.9431,-3.9443,-3.9482,-3.9544,-3.955,-3.9496,-3.9492,-3.9597,-3.9609,-3.9621,-3.9747,-3.9653,-3.966,-3.9664,-3.9946,-3.995,-3.9954,0,0,0,0,0,0,-3.9278,-3.9297,-3.9458,-3.9385,-3.9405,-3.9438,-3.9482,-3.9486,-3.9514,-3.9554,-3.956,-3.9519,-3.9595,-3.9611,-3.9702,-3.9751,-3.9663,-3.967,-3.9942,-3.9947,-3.9952,-3.9999,0,0,0,0,0,0,-3.9271,-3.9295,-3.9334,-3.9386,-3.9409,-3.9535,-3.9485,-3.949,-3.9527,-3.9523,-3.9577,-3.9584,-3.9594,-3.9691,-3.9709,-3.9759,-3.9675,-3.9938,-3.9944,-3.995,-3.9994,-4.0005,-4.0016,0,0,0,0,0,-3.9264,-3.9343,-3.9336,-3.9355,-3.9458,-3.9538,-3.9551,-3.9562,-3.9531,-3.957,-3.9597,-3.9582,-3.9743,-3.97,-3.972,-3.9773,-3.9934,-3.9942,-3.995,-3.9989,-4.0003,-4.0015,0,0,0,0,0,0,-3.9295,-3.9349,-3.9342,-3.944,-3.9485,-3.9534,-3.9584,-3.9577,-3.9631,-3.9625,-3.9636,-3.9649,-3.9741,-3.9767,-3.9718,-3.9878,-3.9835,-3.9846,-3.9857,-3.9871,-3.9882,-3.9873,-3.9681,0,0,0,0,0,-3.9313,-3.9373,-3.9418,-3.95,-3.9523,-3.955,-3.9586,-3.959,-3.9637,-3.9655,-3.9688,-3.9734,-3.9796,-3.9835,-3.9894,-3.9999,-4.0011,-4.0045,-4.0056,-4.0065,-4.0075,-4.0133,-4.0149,-3.9979,-3.9979,-3.9979,0,0,-3.9351,-3.9389,-3.9426,-3.9508,-3.9543,-3.9606,-3.9566,-3.9634,-3.9681,-3.9666,-3.9753,-3.9779,-3.9832,-3.993,-3.9975,-3.9954,-4.0125,-4.0075,-4.0082,-4.0086,-4.0143,-4.0159,-4.0173,-3.9984,-3.9983,-3.9982,0,0,-3.9453,-3.9487,-3.956,-3.9596,-3.965,-3.9669,-3.9686,-3.9738,-3.9755,-3.9843,-3.9833,-3.9891,-3.9996,-4.0034,-4.0067,-4.0188,-4.0177,-4.0208,-4.0264,-4.0322,-4.0335,-4.0347,-4.039,-4.0405,-4.0217,-4.0218,-4.0218,0,-3.9493,-3.9586,-3.9598,-3.9668,-3.9704,-3.9696,-3.977,-3.9805,-3.9876,-3.9902,-3.9879,-4.0012,-4.0047,-4.0154,-4.0184,-4.0212,-4.0233,-4.02,-4.0332,-4.0344,-4.0355,-4.0397,-4.0413,-4.0221,-4.022,-4.022,-4.022,0,-3.9634,-3.9699,-3.9752,-3.9821,-3.9864,-3.9936,-3.996,-4.0003,-4.0005,-4.0026,-4.0118,-4.016,-4.0228,-4.0254,-4.0257,-4.0364,-4.0349,-4.0329,-4.0285,-4.0375,-4.0414,-4.0429,-4.0225,-4.0224,-4.0223,-4.0223,0,0,-3.9753,-3.983,-3.9849,-3.9881,-3.9943,-3.9994,-4.0067,-4.0134,-4.017,-4.0221,-4.0283,-4.0374,-4.0356,-4.0394,-4.0402,-4.0453,-4.0546,-4.0426,-4.0428,-4.0446,-4.0668,-4.0681,-4.0699,-4.0541,-4.0544,-4.0546,-4.0663,0,-3.9859,-3.9986,-4.0001,-4.0114,-4.0176,-4.0171,-4.0235,-4.028,-4.0303,-4.036,-4.0386,-4.045,-4.0422,-4.0445,-4.0496,-4.0524,-4.0591,-4.0516,-4.0598,-4.0601,-4.0583,-4.0719,-4.0733,-4.084,-4.0678,-4.0681,-4.0683,0,-3.9998,-4.0053,-4.0173,-4.0228,-4.0255,-4.0312,-4.0375,-4.043,-4.0482,-4.0496,-4.054,-4.0542,-4.0619,-4.0575,-4.0682,-4.0631,-4.0666,-4.0686,-4.0691,-4.0697,-4.0645,-4.0728,-4.0875,-4.089,-4.0707,-4.0705,-4.0703,0,-4.0072,-4.0177,-4.0263,-4.0291,-4.0357,-4.0398,-4.0427,-4.0477,-4.0517,-4.0574,-4.06,-4.0665,-4.07,-4.0751,-4.0772,-4.0738,-4.0878,-4.0835,-4.0891,-4.0891,-4.0918,-4.0916,-4.1072,-4.0945,-4.0945,-4.0944,-4.0944,0,-4.0188,-4.0261,-4.0297,-4.0349,-4.0433,-4.0451,-4.0533,-4.0561,-4.0606,-4.0665,-4.0666,-4.0722,-4.0746,-4.0806,-4.0823,-4.0909,-4.0926,-4.0939,-4.0942,-4.0938,-4.0936,-4.0959,-4.0951,-4.0949,-4.0948,-4.0947,-4.0946,0,-4.0282,-4.031,-4.0403,-4.046,-4.0476,-4.0534,-4.0583,-4.0635,-4.066,-4.0735,-4.0753,-4.0791,-4.0863,-4.0889,-4.0975,-4.0987,-4.1087,-4.1085,-4.1068,-4.1069,-4.1124,-4.1118,-4.1298,-4.1323,-4.1181,-4.1182,-4.1183,0,-4.0353,-4.0409,-4.0473,-4.0513,-4.0544,-4.0608,-4.065,-4.0671,-4.0715,-4.0781,-4.0825,-4.0896,-4.0954,-4.1068,-4.1104,-4.1171,-4.117,-4.1229,-4.1179,-4.1174,-4.1169,-4.1165,-4.1171,-4.1236,-4.1238,-4.1239,-4.124,0,-4.0475,-4.0487,-4.0546,-4.0612,-4.0661,-4.0714,-4.0765,-4.0798,-4.0828,-4.0877,-4.095,-4.0995,-4.1084,-4.1155,-4.1225,-4.1257,-4.1254,-4.1256,-4.1272,-4.1267,-4.1255,-4.1261,-4.1091,-4.1251,-4.125,-4.1249,-4.1248,-4.1248,-4.0559,-4.061,-4.0663,-4.073,-4.0772,-4.082,-4.0872,-4.0904,-4.0965,-4.1039,-4.105,-4.1128,-4.1183,-4.1276,-4.1312,-4.1374,-4.1358,-4.1382,-4.1388,-4.1393,-4.1397,-4.1247,-4.1387,-4.1387,-4.1387,-4.1387,-4.1386,0,-4.068,-4.0715,-4.0777,-4.0849,-4.0903,-4.0898,-4.0955,-4.1,-4.1069,-4.112,-4.1178,-4.1263,-4.1333,-4.1376,-4.1447,-4.1489,-4.1489,-4.1506,-4.1502,-4.151,-4.1407,-4.1385,-4.1505,-4.1505,-4.1505,-4.1505,-4.1505,-4.1505,-4.0749,-4.0835,-4.0854,-4.0961,-4.0996,-4.1073,-4.1106,-4.1152,-4.1193,-4.1288,-4.1346,-4.1375,-4.1424,-4.1498,-4.1563,-4.1574,-4.1599,-4.1618,-4.1627,-4.1529,-4.1517,-4.1505,-4.1485,-4.1623,-4.1624,-4.1725,-4.1726,-4.1726]},{"header":{"parameterUnit":"m.s-1","parameterCategory":1,"la1":30.2991,"la2":30.254,"lo1":-89.0895,"lo2":-89.0444,"dy":0.0017,"dx":0.0017,"nx":28,"ny":28,"refTime":"2026-03-04T09:00:00:Z","depth":0,"parameterNumber":3,"parameterNumberName":"V-component_of_WINDS"},"data":[0,0,0,0,0,0,0,0,0,0,0,0,0,0,0,0,0,0,0,0,0,0,0,0,0,0,0,0,0,0,0,0,0,0,0,0,0,0,0,0,0,0,0,0,0,0,0,0,0,0,0,0,0,0,0,0,0,0,2.2926,2.2926,0,2.2954,2.2954,2.2955,2.2963,2.2963,2.2963,2.2963,2.2989,2.299,2.2991,0,0,0,0,0,0,0,0,0,0,0,0,0,2.288,2.2881,2.2926,2.2927,2.2927,2.2954,2.2954,2.2955,2.2963,2.2963,2.2963,2.2963,2.2989,2.299,2.2991,0,0,0,0,0,0,0,0,0,0,0,0,0,2.2903,2.2881,2.2926,2.2934,2.2935,2.2954,2.2954,2.2955,2.2963,2.2963,2.2963,2.2963,2.2989,2.299,2.2991,2.3003,0,0,2.2995,2.2995,0,0,0,0,0,0,0,0,2.2902,2.2905,2.2933,2.2934,2.2935,2.2955,2.2948,2.2971,2.2963,2.2953,2.2963,2.2963,2.2978,2.298,2.2986,2.3004,2.3005,2.2995,2.2996,2.2996,2.2997,0,0,0,0,0,0,0,2.29,2.2904,2.2937,2.2933,2.2935,2.2937,2.294,2.2952,2.2966,2.2954,2.2954,2.2958,2.2978,2.2984,2.2986,2.3005,2.2995,2.2996,2.2997,2.2997,2.3037,2.3037,0,0,0,0,0,0,2.2898,2.2903,2.2936,2.2938,2.2918,2.2938,2.2941,2.2949,2.2966,2.2968,2.2958,2.2958,2.2982,2.2985,2.2987,2.3003,2.2996,2.2997,2.2998,2.3037,2.3037,2.3038,0,0,0,0,0,0,2.2897,2.2901,2.2935,2.2921,2.2925,2.2939,2.2947,2.2949,2.2955,2.2969,2.2971,2.2961,2.2982,2.2985,2.2999,2.3004,2.2998,2.2999,2.3036,2.3037,2.3037,2.3035,0,0,0,0,0,0,2.2895,2.29,2.2904,2.2921,2.2926,2.2947,2.2947,2.295,2.2958,2.2958,2.2973,2.2975,2.2982,2.2998,2.3001,2.3006,2.3,2.3036,2.3037,2.3037,2.3035,2.3035,2.3036,0,0,0,0,0,2.2894,2.2902,2.2905,2.2909,2.2932,2.2947,2.295,2.2959,2.2958,2.2963,2.2972,2.2975,2.3004,2.2999,2.3002,2.3008,2.3036,2.3037,2.3037,2.3034,2.3035,2.3036,0,0,0,0,0,0,2.2884,2.2904,2.2907,2.2921,2.2932,2.2948,2.2954,2.2959,2.297,2.297,2.298,2.2983,2.2997,2.3004,2.2998,2.3022,2.302,2.3021,2.3016,2.3017,2.3018,2.3016,2.3001,0,0,0,0,0,2.2884,2.2895,2.2911,2.2922,2.2928,2.294,2.2947,2.2953,2.2965,2.297,2.298,2.2991,2.3003,2.3011,2.3022,2.3036,2.304,2.3042,2.3043,2.3043,2.3044,2.3054,2.3055,2.304,2.304,2.304,0,0,2.2883,2.2895,2.2901,2.292,2.293,2.2942,2.2944,2.2956,2.2965,2.2971,2.2986,2.2994,2.3007,2.3022,2.3029,2.3028,2.305,2.3044,2.3044,2.3045,2.3055,2.3056,2.3058,2.304,2.304,2.304,0,0,2.2887,2.2897,2.2908,2.2918,2.2934,2.2943,2.2945,2.2961,2.2968,2.2982,2.2989,2.2999,2.3019,2.3029,2.3037,2.3048,2.3052,2.3052,2.3055,2.3064,2.3065,2.3067,2.3072,2.3073,2.3053,2.3053,2.3053,0,2.2884,2.2902,2.2913,2.2925,2.2934,2.2942,2.2954,2.2963,2.2981,2.2987,2.2987,2.3013,2.3023,2.3041,2.3044,2.305,2.3054,2.305,2.3064,2.3066,2.3067,2.3072,2.3074,2.3053,2.3053,2.3053,2.3053,0,2.2898,2.2911,2.2917,2.2936,2.2946,2.2958,2.2971,2.2979,2.2985,2.2994,2.3011,2.3023,2.3038,2.3043,2.3047,2.3062,2.3062,2.3063,2.3061,2.3068,2.3073,2.3075,2.3053,2.3053,2.3053,2.3053,0,0,2.2895,2.2922,2.2924,2.2934,2.2953,2.2963,2.2976,2.2992,2.3,2.3013,2.3024,2.3042,2.3044,2.3053,2.306,2.3068,2.3078,2.3068,2.3069,2.3071,2.3097,2.3096,2.3098,2.3081,2.3082,2.3082,2.3096,0,2.2902,2.2926,2.2938,2.2957,2.2969,2.2979,2.2991,2.3004,2.3013,2.3026,2.3036,2.3049,2.305,2.3056,2.3065,2.3075,2.3084,2.3074,2.3092,2.3093,2.3089,2.3101,2.3099,2.3112,2.3098,2.3098,2.3099,0,2.2913,2.2928,2.2949,2.2969,2.2975,2.2985,2.3002,2.3013,2.3029,2.3036,2.3047,2.3054,2.3069,2.3067,2.3088,2.3081,2.3089,2.3096,2.3097,2.3099,2.3096,2.3103,2.3116,2.3118,2.3102,2.3101,2.3101,0,2.2911,2.2936,2.2952,2.296,2.2983,2.299,2.3,2.3016,2.3026,2.3041,2.3047,2.3063,2.3072,2.3085,2.3096,2.3093,2.3117,2.3115,2.3123,2.3122,2.3127,2.3126,2.3141,2.3131,2.3131,2.3131,2.3131,0,2.2918,2.293,2.2951,2.2961,2.2976,2.299,2.3004,2.3015,2.3029,2.3042,2.3051,2.3063,2.3077,2.3091,2.31,2.3117,2.312,2.3126,2.3128,2.3126,2.3125,2.3131,2.313,2.3132,2.3132,2.3132,2.3132,0,2.2916,2.2931,2.295,2.2971,2.2977,2.2987,2.3006,2.3016,2.3027,2.3043,2.3048,2.3065,2.3082,2.3095,2.3116,2.3122,2.3141,2.3143,2.3136,2.3137,2.3144,2.3144,2.3164,2.3168,2.3155,2.3155,2.3155,0,2.292,2.293,2.2954,2.2964,2.2974,2.2989,2.3,2.3014,2.3025,2.3046,2.3054,2.3072,2.3087,2.3114,2.3128,2.3145,2.3148,2.3154,2.315,2.3148,2.3149,2.3148,2.315,2.3154,2.3154,2.3154,2.3154,0,2.2925,2.2933,2.2948,2.2967,2.298,2.2995,2.3011,2.3018,2.3036,2.3047,2.3066,2.3078,2.3101,2.3119,2.3138,2.3148,2.3155,2.3156,2.3158,2.3155,2.3151,2.3155,2.3137,2.3155,2.3155,2.3155,2.3155,2.3155,2.2927,2.2937,2.2956,2.2974,2.2988,2.3003,2.3014,2.3028,2.3044,2.3065,2.3072,2.3091,2.3109,2.3136,2.3147,2.3162,2.3162,2.3166,2.3167,2.3168,2.3168,2.3149,2.3165,2.3165,2.3165,2.3165,2.3165,0,2.2933,2.2947,2.2963,2.2986,2.3,2.3006,2.3024,2.3036,2.3053,2.3069,2.3085,2.3107,2.3125,2.3142,2.3161,2.317,2.3174,2.3175,2.3174,2.3177,2.3166,2.3162,2.3172,2.3172,2.3172,2.3172,2.3172,2.3172,2.2938,2.2957,2.2967,2.2993,2.3007,2.3026,2.3036,2.3051,2.3064,2.3089,2.3105,2.3116,2.3133,2.3154,2.3172,2.3176,2.3183,2.3184,2.3189,2.3178,2.3177,2.3177,2.3173,2.3185,2.3185,2.3199,2.3199,2.3199]}]]